FW4361 Weather Reports


time (UTC)temp
C
wind
direction
speed
KPH
gust
KPH
rain 1hr
cm
rain 24hr
cm
rain mn
cm
humidity
%
barometer
mb
20260505011547 7 238 8.0 25.7 0.00 1.30 0.33 79 1009.9
20260505010049 7 223 8.0 25.7 0.00 1.30 0.33 80 1009.9
20260505004555 7 236 12.9 22.5 0.00 1.96 0.33 81 1009.7
20260505003047 7 247 12.9 29.0 0.00 1.96 0.33 80 1009.6
20260505001554 7 263 11.3 27.4 0.00 1.96 0.33 80 1009.4
20260505000106 8 229 11.3 33.8 0.00 1.96 0.33 79 1009.1
20260504234552 8 238 12.9 38.6 0.00 2.34 0.33 78 1008.7
20260504233055 8 182 14.5 35.4 0.00 2.34 0.33 78 1008.2
20260504231550 8 215 20.9 48.3 0.00 2.34 0.33 78 1007.8
20260504230104 8 196 17.7 37.0 0.00 2.34 0.33 78 1007.8
20260504224552 9 176 17.7 43.5 0.00 2.36 0.33 77 1007.6
20260504223049 9 191 16.1 32.2 0.00 2.36 0.33 77 1007.4
20260504221557 9 227 19.3 38.6 0.00 2.36 0.33 77 1007.6
20260504220055 10 224 16.1 41.8 0.00 2.36 0.33 76 1007.3
20260504214548 10 229 14.5 37.0 0.00 2.36 0.33 75 1007.5
20260504213046 10 197 14.5 33.8 0.00 2.36 0.33 77 1007.5
20260504211550 10 180 17.7 37.0 0.00 2.36 0.33 77 1007.5
20260504210051 10 164 16.1 35.4 0.00 2.36 0.33 77 1007.7
20260504204549 10 205 16.1 43.5 0.00 2.44 0.33 77 1007.7
20260504203101 9 196 16.1 35.4 0.00 2.44 0.33 78 1007.9
20260504201554 10 154 14.5 35.4 0.00 2.44 0.33 78 1008.0
20260504200053 10 156 9.7 25.7 0.00 2.44 0.33 76 1008.1
20260504194552 10 219 12.9 38.6 0.00 2.74 0.33 75 1007.8
20260504193049 11 212 19.3 35.4 0.00 2.74 0.33 73 1007.6
20260504191600 11 209 12.9 35.4 0.00 2.74 0.33 72 1007.5
20260504190046 11 218 19.3 32.2 0.00 2.74 0.33 73 1007.4
20260504184550 11 213 17.7 37.0 0.00 3.05 0.33 72 1007.4
20260504183047 11 207 16.1 33.8 0.00 3.05 0.33 73 1007.4
20260504181555 11 201 14.5 38.6 0.00 3.05 0.33 71 1007.5
20260504180050 11 235 14.5 35.4 0.00 3.05 0.33 71 1007.5
20260504174550 11 214 11.3 29.0 0.00 3.28 0.33 71 1007.5
20260504173055 11 229 11.3 29.0 0.00 3.28 0.33 71 1007.4
20260504171551 12 172 11.3 30.6 0.00 3.28 0.33 68 1007.6
20260504081550 4 250 11.3 30.6 0.00 5.36 0.33 80 1004.3
20260504050105 5 290 16.1 37.0 0.05 5.36 0.33 91 1001.6
20260504044552 5 221 22.5 46.7 0.08 5.36 0.33 92 1001.3
20260504043055 5 278 17.7 38.6 0.15 5.36 0.33 93 1001.4
20260504041549 5 289 17.7 38.6 0.23 5.33 0.30 93 1001.3
20260504040054 5 259 19.3 37.0 0.28 5.28 0.28 94 1001.0
20260504034549 5 246 14.5 43.5 0.30 5.26 0.23 94 1000.9
20260504033052 4 225 16.1 37.0 0.36 5.18 0.18 94 1000.8
20260504031550 4 327 19.3 43.5 0.36 5.08 0.08 94 1000.5
20260504030052 4 339 14.5 37.0 0.38 5.00 0.00 94 1000.2
20260504024607 4 269 17.7 30.6 0.43 4.93 4.93 94 999.8
20260504023053 4 356 17.7 35.4 0.46 4.83 4.83 94 999.6
20260504021550 4 301 16.1 33.8 0.48 4.72 4.72 94 999.3
20260504020047 3 352 17.7 41.8 0.53 4.60 4.60 94 999.3
20260504014548 3 272 11.3 40.2 0.61 4.50 4.50 94 999.0
20260504013045 3 310 12.9 32.2 0.64 4.37 4.37 94 998.8